Time,TemperatureF,DewpointF,PressureIn,WindDirection,WindDirectionDegrees,WindSpeedMPH,WindSpeedGustMPH,Humidity,HourlyPrecipIn,Conditions,Clouds,dailyrainin,SoftwareType,DateUTC
2013-01-10 00:00:00,47.3,30.8,30.20,ENE,62,0.0,22.6,52,0.00,,---,0.00,VWS V14.01,2013-01-10 05:00:00,
2013-01-10 00:01:00,37.9,24.8,30.46,NNE,31,4.7,6.7,59,0.00,,---,0.00,VWS V14.01,2013-01-10 05:01:00,
2013-01-10 00:02:00,47.5,31.0,30.20,North,359,3.0,5.4,53,0.00,,---,0.00,VWS V14.01,2013-01-10 05:02:00,
2013-01-10 00:07:00,46.9,30.5,30.20,North,359,13.1,15.4,52,0.00,,---,0.00,VWS V14.01,2013-01-10 05:07:00,
2013-01-10 00:12:00,47.1,30.8,30.21,North,359,0.2,13.4,53,0.00,,---,0.00,VWS V14.01,2013-01-10 05:12:00,
2013-01-10 00:17:00,46.8,30.4,30.21,WNW,291,17.2,18.8,52,0.00,,---,0.00,VWS V14.01,2013-01-10 05:17:00,
2013-01-10 00:21:00,46.9,30.3,30.21,West,267,11.2,19.8,52,0.00,,---,0.00,VWS V14.01,2013-01-10 05:21:00,
2013-01-10 00:26:00,46.9,30.6,30.20,WNW,290,0.0,11.6,53,0.00,,---,0.00,VWS V14.01,2013-01-10 05:26:00,
2013-01-10 00:31:00,46.8,30.5,30.21,North,359,0.3,19.4,53,0.00,,---,0.00,VWS V14.01,2013-01-10 05:31:00,
2013-01-10 00:36:00,46.8,30.4,30.21,NW,318,12.9,22.5,52,0.00,,---,0.00,VWS V14.01,2013-01-10 05:36:00,
2013-01-10 00:41:00,46.6,30.0,30.21,West,270,11.6,16.5,52,0.00,,---,0.00,VWS V14.01,2013-01-10 05:41:00,
2013-01-10 00:46:00,45.9,29.2,30.21,West,267,17.0,19.1,52,0.00,,---,0.00,VWS V14.01,2013-01-10 05:46:00,
2013-01-10 00:51:00,46.4,29.5,30.22,NW,325,5.2,20.3,52,0.00,,---,0.00,VWS V14.01,2013-01-10 05:51:00,
2013-01-10 00:56:00,46.8,30.0,30.22,WNW,295,15.3,16.8,52,0.00,,---,0.00,VWS V14.01,2013-01-10 05:56:00,
2013-01-10 01:01:00,46.4,29.6,30.23,West,274,5.2,18.1,52,0.00,,---,0.00,VWS V14.01,2013-01-10 06:01:00,
2013-01-10 01:06:00,46.1,29.3,30.23,NW,308,14.6,17.0,52,0.00,,---,0.00,VWS V14.01,2013-01-10 06:06:00,
2013-01-10 01:11:00,46.6,29.9,30.23,West,271,6.0,10.5,52,0.00,,---,0.00,VWS V14.01,2013-01-10 06:11:00,
2013-01-10 01:16:00,46.1,29.4,30.23,North,359,3.6,12.9,52,0.00,,---,0.00,VWS V14.01,2013-01-10 06:16:00,
2013-01-10 01:21:00,46.1,29.3,30.23,WNW,294,4.7,15.2,52,0.00,,---,0.00,VWS V14.01,2013-01-10 06:21:00,
2013-01-10 01:26:00,45.8,28.8,30.23,WNW,285,16.1,18.8,51,0.00,,---,0.00,VWS V14.01,2013-01-10 06:26:00,
2013-01-10 01:31:00,45.9,29.0,30.25,North,359,0.9,6.2,51,0.00,,---,0.00,VWS V14.01,2013-01-10 06:31:00,
2013-01-10 01:36:00,45.9,28.9,30.25,NW,322,12.1,15.7,51,0.00,,---,0.00,VWS V14.01,2013-01-10 06:36:00,
2013-01-10 01:41:00,45.3,28.2,30.25,NW,319,10.3,18.8,51,0.00,,---,0.00,VWS V14.01,2013-01-10 06:41:00,
2013-01-10 01:46:00,45.2,28.2,30.26,NW,318,5.7,10.8,51,0.00,,---,0.00,VWS V14.01,2013-01-10 06:46:00,
2013-01-10 01:51:00,45.6,28.3,30.26,WNW,297,17.1,19.6,51,0.00,,---,0.00,VWS V14.01,2013-01-10 06:51:00,
2013-01-10 01:56:00,45.4,28.1,30.26,North,359,7.5,13.6,50,0.00,,---,0.00,VWS V14.01,2013-01-10 06:56:00,
2013-01-10 02:01:00,45.4,28.3,30.26,NNW,329,8.6,11.7,51,33.57,,---,0.00,VWS V14.01,2013-01-10 07:01:00,
2013-01-10 02:06:00,44.9,27.9,30.26,West,271,6.8,13.4,51,0.00,,---,0.00,VWS V14.01,2013-01-10 07:06:00,
2013-01-10 02:11:00,45.2,28.2,30.26,NW,311,8.3,12.0,51,0.00,,---,0.00,VWS V14.01,2013-01-10 07:11:00,
2013-01-10 02:16:00,44.4,27.4,30.26,WNW,291,13.7,16.3,51,0.00,,---,0.00,VWS V14.01,2013-01-10 07:16:00,
2013-01-10 02:21:00,44.8,27.8,30.27,NNW,330,12.2,15.2,51,0.00,,---,0.00,VWS V14.01,2013-01-10 07:21:00,
2013-01-10 02:26:00,44.5,27.4,30.27,NW,315,8.8,16.5,51,0.00,,---,0.00,VWS V14.01,2013-01-10 07:26:00,
2013-01-10 02:31:00,45.1,28.2,30.27,NW,307,13.8,17.1,51,0.00,,---,0.00,VWS V14.01,2013-01-10 07:31:00,
2013-01-10 02:36:00,45.2,28.2,30.27,NW,311,9.7,16.7,51,0.00,,---,0.00,VWS V14.01,2013-01-10 07:36:00,
2013-01-10 02:41:00,43.3,26.6,30.27,WNW,294,6.1,12.6,51,0.00,,---,0.00,VWS V14.01,2013-01-10 07:41:00,
2013-01-10 02:46:00,44.0,27.4,30.27,NW,325,11.9,11.9,52,0.00,,---,0.00,VWS V14.01,2013-01-10 07:46:00,
2013-01-10 02:51:00,43.9,27.3,30.27,WNW,287,7.3,13.9,52,0.00,,---,0.00,VWS V14.01,2013-01-10 07:51:00,
2013-01-10 02:56:00,44.4,28.0,30.28,North,359,9.1,11.5,52,0.00,,---,0.00,VWS V14.01,2013-01-10 07:56:00,
2013-01-10 03:01:00,43.9,27.5,30.28,NNW,342,4.0,8.5,52,0.00,,---,0.00,VWS V14.01,2013-01-10 08:01:00,
2013-01-10 03:06:00,44.4,27.9,30.28,West,273,13.5,13.5,52,0.00,,---,0.00,VWS V14.01,2013-01-10 08:06:00,
2013-01-10 03:11:00,44.4,28.0,30.28,WNW,284,15.0,18.6,52,0.00,,---,0.00,VWS V14.01,2013-01-10 08:11:00,
2013-01-10 03:16:00,44.1,27.7,30.28,WNW,302,8.5,8.9,52,0.00,,---,0.00,VWS V14.01,2013-01-10 08:16:00,
2013-01-10 03:21:00,44.1,27.6,30.28,WNW,295,9.4,15.8,52,0.00,,---,0.00,VWS V14.01,2013-01-10 08:21:00,
2013-01-10 03:26:00,43.9,27.6,30.28,West,281,16.4,16.4,52,0.00,,---,0.00,VWS V14.01,2013-01-10 08:26:00,
2013-01-10 03:31:00,43.2,27.0,30.28,NW,311,9.1,12.4,52,0.00,,---,0.00,VWS V14.01,2013-01-10 08:31:00,
2013-01-10 03:36:00,43.5,27.2,30.28,NW,311,7.8,13.1,52,0.00,,---,0.00,VWS V14.01,2013-01-10 08:36:00,
2013-01-10 03:41:00,43.3,27.2,30.29,WNW,301,9.4,9.8,53,0.00,,---,0.00,VWS V14.01,2013-01-10 08:41:00,
2013-01-10 03:46:00,43.7,27.5,30.29,WNW,288,4.5,8.4,53,0.00,,---,0.00,VWS V14.01,2013-01-10 08:46:00,
2013-01-10 03:51:00,43.6,27.5,30.29,NW,322,2.7,6.3,53,0.00,,---,0.00,VWS V14.01,2013-01-10 08:51:00,
2013-01-10 03:56:00,42.9,26.9,30.29,West,278,3.9,9.5,53,0.00,,---,0.00,VWS V14.01,2013-01-10 08:56:00,
2013-01-10 04:01:00,42.7,26.8,30.29,NW,316,5.1,9.5,53,40.68,,---,0.00,VWS V14.01,2013-01-10 09:01:00,
2013-01-10 04:06:00,43.2,27.4,30.29,WNW,294,13.5,13.5,53,0.00,,---,0.00,VWS V14.01,2013-01-10 09:06:00,
2013-01-10 04:11:00,42.6,26.9,30.29,NW,307,6.5,8.7,53,0.00,,---,0.00,VWS V14.01,2013-01-10 09:11:00,
2013-01-10 04:16:00,42.8,27.1,30.29,WNW,300,5.5,10.0,54,75.48,,---,0.00,VWS V14.01,2013-01-10 09:16:00,
2013-01-10 04:19:00,39.4,25.0,30.45,ENE,63,4.2,6.1,56,0.00,,---,0.00,VWS V14.01,2013-01-10 09:19:00,
2013-01-10 04:21:00,42.5,26.9,30.29,NW,304,8.7,11.6,54,0.00,,---,0.00,VWS V14.01,2013-01-10 09:21:00,
2013-01-10 04:26:00,42.2,26.7,30.29,NW,326,12.1,13.7,54,0.00,,---,0.00,VWS V14.01,2013-01-10 09:26:00,
2013-01-10 04:31:00,42.1,26.7,30.29,NW,312,8.6,11.9,54,0.00,,---,0.00,VWS V14.01,2013-01-10 09:31:00,
2013-01-10 04:36:00,41.8,26.5,30.29,WNW,295,7.8,11.2,54,0.00,,---,0.00,VWS V14.01,2013-01-10 09:36:00,
2013-01-10 04:41:00,42.5,27.1,30.30,NW,322,10.2,10.2,54,0.00,,---,0.00,VWS V14.01,2013-01-10 09:41:00,
2013-01-10 04:46:00,41.6,26.4,30.30,NNW,340,7.8,9.4,54,0.00,,---,0.00,VWS V14.01,2013-01-10 09:46:00,
2013-01-10 04:51:00,41.4,26.2,30.30,North,359,8.9,10.6,54,0.00,,---,0.00,VWS V14.01,2013-01-10 09:51:00,
2013-01-10 04:56:00,41.2,26.3,30.30,North,3,10.2,11.6,55,0.00,,---,0.00,VWS V14.01,2013-01-10 09:56:00,
2013-01-10 05:01:00,41.5,26.7,30.30,NNW,340,8.5,11.0,55,0.00,,---,0.00,VWS V14.01,2013-01-10 10:01:00,
2013-01-10 05:06:00,41.4,26.7,30.31,NW,325,4.8,8.6,56,0.00,,---,0.00,VWS V14.01,2013-01-10 10:06:00,
2013-01-10 05:11:00,42.0,27.5,30.31,NNW,340,9.4,9.4,56,0.00,,---,0.00,VWS V14.01,2013-01-10 10:11:00,
2013-01-10 05:16:00,41.6,27.1,30.31,NNW,339,4.3,6.1,56,0.00,,---,0.00,VWS V14.01,2013-01-10 10:16:00,
2013-01-10 05:21:00,41.4,27.0,30.32,NNW,340,9.6,10.0,56,0.00,,---,0.00,VWS V14.01,2013-01-10 10:21:00,
2013-01-10 05:26:00,41.3,26.9,30.32,NNW,328,4.2,5.4,56,0.00,,---,0.00,VWS V14.01,2013-01-10 10:26:00,
2013-01-10 05:31:00,40.8,26.3,30.33,NW,315,8.3,9.2,56,0.00,,---,0.00,VWS V14.01,2013-01-10 10:31:00,
2013-01-10 05:36:00,41.2,26.6,30.33,West,267,4.7,5.5,56,0.00,,---,0.00,VWS V14.01,2013-01-10 10:36:00,
2013-01-10 05:41:00,40.5,26.0,30.33,West,260,4.5,7.5,56,0.00,,---,0.00,VWS V14.01,2013-01-10 10:41:00,
2013-01-10 05:46:00,41.1,26.7,30.33,NW,314,4.3,7.8,56,0.00,,---,0.00,VWS V14.01,2013-01-10 10:46:00,
2013-01-10 05:51:00,40.7,26.3,30.34,WNW,284,1.4,2.3,56,0.00,,---,0.00,VWS V14.01,2013-01-10 10:51:00,
2013-01-10 05:56:00,40.6,26.3,30.34,NW,314,5.3,5.9,56,0.00,,---,0.00,VWS V14.01,2013-01-10 10:56:00,
2013-01-10 06:01:00,40.5,26.2,30.34,North,357,2.7,3.4,56,0.00,,---,0.00,VWS V14.01,2013-01-10 11:01:00,
2013-01-10 06:06:00,40.5,26.2,30.35,NNW,332,4.5,5.0,56,0.00,,---,0.00,VWS V14.01,2013-01-10 11:06:00,
2013-01-10 06:11:00,40.5,26.3,30.35,NW,315,7.8,7.8,57,0.00,,---,0.00,VWS V14.01,2013-01-10 11:11:00,
2013-01-10 06:16:00,40.4,26.2,30.35,NW,308,4.0,6.2,57,0.00,,---,0.00,VWS V14.01,2013-01-10 11:16:00,
2013-01-10 06:21:00,40.7,26.6,30.35,NNW,330,5.7,8.3,57,0.00,,---,0.00,VWS V14.01,2013-01-10 11:21:00,
2013-01-10 06:26:00,40.4,26.4,30.35,NNW,329,6.5,9.1,57,0.00,,---,0.00,VWS V14.01,2013-01-10 11:26:00,
2013-01-10 06:31:00,39.7,25.9,30.35,NNW,340,4.5,6.4,57,0.00,,---,0.00,VWS V14.01,2013-01-10 11:31:00,
2013-01-10 06:36:00,40.0,26.3,30.36,NNW,339,4.8,6.6,58,0.00,,---,0.00,VWS V14.01,2013-01-10 11:36:00,
2013-01-10 06:41:00,40.0,26.4,30.36,NNW,343,6.0,6.0,58,0.00,,---,0.00,VWS V14.01,2013-01-10 11:41:00,
2013-01-10 06:46:00,39.9,26.3,30.37,NW,326,4.9,4.9,58,0.00,,---,0.00,VWS V14.01,2013-01-10 11:46:00,
2013-01-10 06:51:00,39.5,25.9,30.37,NW,323,6.8,7.5,58,0.00,,---,0.00,VWS V14.01,2013-01-10 11:51:00,
2013-01-10 06:56:00,39.4,25.8,30.37,NW,326,4.3,4.3,58,0.00,,---,0.00,VWS V14.01,2013-01-10 11:56:00,
2013-01-10 07:01:00,39.5,26.0,30.38,NNE,13,3.0,3.5,58,0.00,,---,0.00,VWS V14.01,2013-01-10 12:01:00,
2013-01-10 07:06:00,39.8,26.3,30.38,North,4,4.2,4.3,58,0.00,,---,0.00,VWS V14.01,2013-01-10 12:06:00,
2013-01-10 07:11:00,39.9,26.4,30.38,NW,326,3.9,4.3,58,0.00,,---,0.00,VWS V14.01,2013-01-10 12:11:00,
2013-01-10 07:16:00,38.9,25.6,30.37,WNW,297,6.1,6.1,58,0.00,,---,0.00,VWS V14.01,2013-01-10 12:16:00,
2013-01-10 07:21:00,39.2,26.1,30.38,NW,321,4.3,4.8,59,0.00,,---,0.00,VWS V14.01,2013-01-10 12:21:00,
2013-01-10 07:26:00,38.8,25.8,30.38,NNW,345,6.5,6.5,59,0.00,,---,0.00,VWS V14.01,2013-01-10 12:26:00,
2013-01-10 07:31:00,39.2,26.1,30.39,North,359,2.9,3.2,59,0.00,,---,0.00,VWS V14.01,2013-01-10 12:31:00,
2013-01-10 07:36:00,39.3,26.2,30.39,NW,321,3.6,4.1,59,0.00,,---,0.00,VWS V14.01,2013-01-10 12:36:00,
2013-01-10 07:41:00,39.2,26.0,30.40,North,353,5.7,5.7,59,0.00,,---,0.00,VWS V14.01,2013-01-10 12:41:00,
2013-01-10 07:46:00,39.4,26.1,30.40,NNW,338,6.0,6.2,59,0.00,,---,0.00,VWS V14.01,2013-01-10 12:46:00,
2013-01-10 07:51:00,39.4,26.2,30.40,NW,307,6.4,6.8,59,0.00,,---,0.00,VWS V14.01,2013-01-10 12:51:00,
2013-01-10 07:56:00,39.1,25.9,30.41,WNW,297,4.2,4.2,59,0.00,,---,0.00,VWS V14.01,2013-01-10 12:56:00,
2013-01-10 08:01:00,39.9,26.7,30.41,West,274,3.1,5.8,59,0.00,,---,0.00,VWS V14.01,2013-01-10 13:01:00,
2013-01-10 08:06:00,40.3,27.0,30.42,WSW,257,0.5,0.5,59,0.00,,---,0.00,VWS V14.01,2013-01-10 13:06:00,
2013-01-10 08:11:00,39.3,26.1,30.42,WSW,257,0.0,0.0,59,0.00,,---,0.00,VWS V14.01,2013-01-10 13:11:00,
2013-01-10 08:15:00,39.5,26.2,30.43,WSW,257,0.0,0.0,59,0.00,,---,0.00,VWS V14.01,2013-01-10 13:15:00,
2013-01-10 08:20:00,39.8,26.5,30.42,NW,304,4.8,7.8,58,0.00,,---,0.00,VWS V14.01,2013-01-10 13:20:00,
2013-01-10 08:25:00,40.2,26.7,30.42,North,1,6.4,9.8,58,0.00,,---,0.00,VWS V14.01,2013-01-10 13:25:00,
2013-01-10 08:30:00,39.7,26.2,30.42,North,10,6.2,7.4,58,0.00,,---,0.00,VWS V14.01,2013-01-10 13:30:00,
2013-01-10 08:35:00,39.5,26.1,30.43,NW,321,5.3,8.5,58,0.00,,---,0.00,VWS V14.01,2013-01-10 13:35:00,
2013-01-10 08:40:00,40.1,26.4,30.43,NNW,339,6.0,7.0,58,0.00,,---,0.00,VWS V14.01,2013-01-10 13:40:00,
2013-01-10 08:45:00,40.8,27.3,30.43,NW,322,6.1,6.3,58,0.00,,---,0.00,VWS V14.01,2013-01-10 13:45:00,
2013-01-10 08:50:00,40.3,26.2,30.43,NNW,328,8.4,9.1,57,0.00,,---,0.00,VWS V14.01,2013-01-10 13:50:00,
2013-01-10 08:55:00,40.5,26.1,30.43,NNW,329,9.4,11.6,56,0.00,,---,0.00,VWS V14.01,2013-01-10 13:55:00,
2013-01-10 09:00:00,40.9,26.5,30.43,NNW,340,9.2,9.2,56,0.00,,---,0.00,VWS V14.01,2013-01-10 14:00:00,
2013-01-10 09:05:00,41.5,26.6,30.43,North,10,12.1,12.9,55,0.00,,---,0.00,VWS V14.01,2013-01-10 14:05:00,
2013-01-10 09:10:00,41.4,27.1,30.43,NE,38,10.7,10.7,56,0.00,,---,0.00,VWS V14.01,2013-01-10 14:10:00,
2013-01-10 09:15:00,41.0,26.0,30.43,North,3,10.6,13.4,55,0.00,,---,0.00,VWS V14.01,2013-01-10 14:15:00,
2013-01-10 09:20:00,41.2,26.1,30.43,North,359,2.5,14.0,55,0.00,,---,0.00,VWS V14.01,2013-01-10 14:20:00,
2013-01-10 09:25:00,42.0,26.6,30.43,NW,325,8.6,11.3,54,0.00,,---,0.00,VWS V14.01,2013-01-10 14:25:00,
2013-01-10 09:30:00,41.2,25.6,30.43,NNE,30,10.7,14.3,54,0.00,,---,0.00,VWS V14.01,2013-01-10 14:30:00,
2013-01-10 09:35:00,41.8,26.3,30.43,NNW,340,9.2,13.5,54,0.00,,---,0.00,VWS V14.01,2013-01-10 14:35:00,
2013-01-10 09:40:00,42.1,26.4,30.43,WNW,301,11.2,12.6,53,0.00,,---,0.00,VWS V14.01,2013-01-10 14:40:00,
2013-01-10 09:45:00,41.8,26.5,30.43,North,3,7.9,10.3,54,0.00,,---,0.00,VWS V14.01,2013-01-10 14:45:00,
2013-01-10 09:50:00,41.4,25.0,30.43,North,8,14.9,21.6,52,0.00,,---,0.00,VWS V14.01,2013-01-10 14:50:00,
2013-01-10 09:55:00,41.7,25.2,30.43,NE,38,15.3,17.1,52,0.00,,---,0.00,VWS V14.01,2013-01-10 14:55:00,
2013-01-10 10:00:00,41.9,25.3,30.43,North,359,12.9,16.5,51,0.00,,---,0.00,VWS V14.01,2013-01-10 15:00:00,
2013-01-10 10:05:00,41.6,24.7,30.44,North,359,15.8,18.1,51,0.00,,---,0.00,VWS V14.01,2013-01-10 15:05:00,
2013-01-10 10:10:00,42.3,25.5,30.43,NNW,332,6.6,17.5,51,0.00,,---,0.00,VWS V14.01,2013-01-10 15:10:00,
2013-01-10 10:15:00,42.5,26.0,30.43,North,359,0.9,13.0,52,0.00,,---,0.00,VWS V14.01,2013-01-10 15:15:00,
2013-01-10 10:20:00,42.4,25.1,30.43,North,352,14.4,17.3,50,0.00,,---,0.00,VWS V14.01,2013-01-10 15:20:00,
2013-01-10 10:25:00,42.4,25.6,30.43,NNE,25,8.1,11.7,51,0.00,,---,0.00,VWS V14.01,2013-01-10 15:25:00,
2013-01-10 10:30:00,43.2,25.6,30.43,North,359,1.6,15.2,50,0.00,,---,0.00,VWS V14.01,2013-01-10 15:30:00,
2013-01-10 10:35:00,42.8,24.8,30.43,NNE,18,17.5,17.5,49,0.00,,---,0.00,VWS V14.01,2013-01-10 15:35:00,
2013-01-10 10:40:00,42.5,24.0,30.43,NNE,28,6.3,22.2,48,0.00,,---,0.00,VWS V14.01,2013-01-10 15:40:00,
2013-01-10 10:45:00,43.0,24.9,30.42,NNE,22,16.6,17.6,48,0.00,,---,0.00,VWS V14.01,2013-01-10 15:45:00,
2013-01-10 10:50:00,43.3,25.1,30.42,North,357,14.2,15.6,48,0.00,,---,0.00,VWS V14.01,2013-01-10 15:50:00,
2013-01-10 10:55:00,42.9,25.3,30.42,NNE,22,8.3,13.9,50,0.00,,---,0.00,VWS V14.01,2013-01-10 15:55:00,
2013-01-10 11:00:00,43.1,24.5,30.42,NW,326,13.9,16.0,47,0.00,,---,0.00,VWS V14.01,2013-01-10 16:00:00,
2013-01-10 11:05:00,43.4,24.5,30.42,NE,49,12.2,13.5,47,0.00,,---,0.00,VWS V14.01,2013-01-10 16:05:00,
2013-01-10 11:10:00,43.6,24.6,30.41,North,359,3.9,19.4,47,0.00,,---,0.00,VWS V14.01,2013-01-10 16:10:00,
2013-01-10 11:15:00,43.4,24.0,30.41,NE,56,15.9,17.5,46,0.00,,---,0.00,VWS V14.01,2013-01-10 16:15:00,
2013-01-10 11:20:00,44.0,23.7,30.41,ENE,66,2.9,16.2,44,0.00,,---,0.00,VWS V14.01,2013-01-10 16:20:00,
2013-01-10 11:25:00,43.1,23.0,30.41,NNW,343,14.0,16.5,44,0.00,,---,0.00,VWS V14.01,2013-01-10 16:25:00,
2013-01-10 11:30:00,44.2,24.8,30.41,NW,323,8.9,8.9,46,0.00,,---,0.00,VWS V14.01,2013-01-10 16:30:00,
2013-01-10 11:35:00,44.3,24.7,30.41,NW,309,10.6,15.0,46,0.00,,---,0.00,VWS V14.01,2013-01-10 16:35:00,
2013-01-10 11:40:00,44.9,24.1,30.40,NNE,13,13.2,19.3,44,0.00,,---,0.00,VWS V14.01,2013-01-10 16:40:00,
2013-01-10 11:45:00,44.2,24.6,30.40,NE,45,15.8,15.8,46,0.00,,---,0.00,VWS V14.01,2013-01-10 16:45:00,
2013-01-10 11:50:00,44.8,24.7,30.40,North,359,8.6,8.9,45,0.00,,---,0.00,VWS V14.01,2013-01-10 16:50:00,
2013-01-10 11:55:00,44.6,24.2,30.40,North,1,1.1,13.5,44,0.00,,---,0.00,VWS V14.01,2013-01-10 16:55:00,
2013-01-10 12:00:00,44.8,23.8,30.39,NNW,333,11.8,15.2,43,0.00,,---,0.00,VWS V14.01,2013-01-10 17:00:00,
2013-01-10 12:05:00,45.1,23.7,30.39,North,10,11.6,12.5,42,0.00,,---,0.00,VWS V14.01,2013-01-10 17:05:00,
2013-01-10 12:10:00,44.8,23.7,30.39,NNE,17,11.6,16.0,43,0.00,,---,0.00,VWS V14.01,2013-01-10 17:10:00,
2013-01-10 12:15:00,44.7,23.8,30.39,North,0,0.6,14.5,43,0.00,,---,0.00,VWS V14.01,2013-01-10 17:15:00,
2013-01-10 12:20:00,45.5,24.8,30.39,North,359,7.6,12.7,44,0.00,,---,0.00,VWS V14.01,2013-01-10 17:20:00,
2013-01-10 12:25:00,44.9,23.7,30.39,ENE,63,13.9,14.9,43,0.00,,---,0.00,VWS V14.01,2013-01-10 17:25:00,
2013-01-10 12:30:00,45.1,23.7,30.39,NNW,328,13.2,14.1,42,0.00,,---,0.00,VWS V14.01,2013-01-10 17:30:00,
2013-01-10 12:35:00,45.0,24.7,30.39,NNW,335,11.3,11.4,45,0.00,,---,0.00,VWS V14.01,2013-01-10 17:35:00,
2013-01-10 12:40:00,45.5,23.7,30.39,NNW,345,18.8,20.0,42,0.00,,---,0.00,VWS V14.01,2013-01-10 17:40:00,
2013-01-10 12:45:00,45.6,24.3,30.39,NNW,343,13.9,14.7,43,0.00,,---,0.00,VWS V14.01,2013-01-10 17:45:00,
2013-01-10 12:50:00,45.6,24.5,30.39,NW,319,12.0,14.2,43,0.00,,---,0.00,VWS V14.01,2013-01-10 17:50:00,
2013-01-10 12:55:00,46.1,24.9,30.39,NNW,333,14.9,14.9,43,0.00,,---,0.00,VWS V14.01,2013-01-10 17:55:00,
2013-01-10 13:00:00,46.2,25.6,30.39,West,281,9.3,13.1,44,0.00,,---,0.00,VWS V14.01,2013-01-10 18:00:00,
2013-01-10 13:05:00,46.2,24.5,30.38,WNW,288,14.5,15.5,42,0.00,,---,0.00,VWS V14.01,2013-01-10 18:05:00,
2013-01-10 13:10:00,46.8,25.2,30.39,NW,304,10.4,11.3,42,0.00,,---,0.00,VWS V14.01,2013-01-10 18:10:00,
2013-01-10 13:15:00,46.3,25.2,30.39,NNW,332,10.4,12.1,43,0.00,,---,0.00,VWS V14.01,2013-01-10 18:15:00,
2013-01-10 13:20:00,46.5,25.5,30.39,NNW,347,8.6,9.8,44,0.00,,---,0.00,VWS V14.01,2013-01-10 18:20:00,
2013-01-10 13:25:00,46.4,24.3,30.39,NNW,338,7.3,8.1,42,0.00,,---,0.00,VWS V14.01,2013-01-10 18:25:00,
2013-01-10 13:30:00,46.1,24.0,30.39,NNW,330,11.9,13.2,42,0.00,,---,0.00,VWS V14.01,2013-01-10 18:30:00,
2013-01-10 13:35:00,46.4,24.1,30.39,NW,311,9.9,14.2,41,0.00,,---,0.00,VWS V14.01,2013-01-10 18:35:00,
2013-01-10 13:40:00,46.8,24.0,30.39,NW,309,7.1,10.9,40,0.00,,---,0.00,VWS V14.01,2013-01-10 18:40:00,
2013-01-10 13:45:00,46.7,24.2,30.39,North,349,13.4,13.4,41,0.00,,---,0.00,VWS V14.01,2013-01-10 18:45:00,
2013-01-10 13:50:00,46.1,22.8,30.39,NNW,338,17.1,18.1,40,0.00,,---,0.00,VWS V14.01,2013-01-10 18:50:00,
2013-01-10 13:55:00,46.9,24.1,30.40,NW,308,8.7,11.5,40,0.00,,---,0.00,VWS V14.01,2013-01-10 18:55:00,
2013-01-10 14:00:00,47.2,25.0,30.40,North,10,11.0,11.0,41,0.00,,---,0.00,VWS V14.01,2013-01-10 19:00:00,
2013-01-10 14:05:00,47.2,24.7,30.40,NNW,343,8.9,11.7,41,0.00,,---,0.00,VWS V14.01,2013-01-10 19:05:00,
2013-01-10 14:10:00,47.1,24.5,30.40,NW,323,13.7,15.6,41,0.00,,---,0.00,VWS V14.01,2013-01-10 19:10:00,
2013-01-10 14:15:00,47.7,25.0,30.40,WNW,301,9.4,9.6,41,0.00,,---,0.00,VWS V14.01,2013-01-10 19:15:00,
2013-01-10 14:20:00,47.3,24.3,30.40,NNW,338,6.9,7.3,40,0.00,,---,0.00,VWS V14.01,2013-01-10 19:20:00,
2013-01-10 14:25:00,47.1,24.2,30.41,WNW,302,5.1,6.4,40,0.00,,---,0.00,VWS V14.01,2013-01-10 19:25:00,
2013-01-10 14:30:00,47.4,24.4,30.41,NNW,328,6.0,8.9,40,0.00,,---,0.00,VWS V14.01,2013-01-10 19:30:00,
2013-01-10 14:35:00,47.5,24.8,30.41,NNW,347,9.5,12.2,41,0.00,,---,0.00,VWS V14.01,2013-01-10 19:35:00,
2013-01-10 14:40:00,47.0,23.9,30.41,NNE,14,11.0,11.7,40,0.00,,---,0.00,VWS V14.01,2013-01-10 19:40:00,
2013-01-10 14:45:00,47.4,24.5,30.41,North,354,13.8,13.8,40,0.00,,---,0.00,VWS V14.01,2013-01-10 19:45:00,
2013-01-10 14:50:00,47.5,24.2,30.41,NNW,342,10.7,10.9,40,0.00,,---,0.00,VWS V14.01,2013-01-10 19:50:00,
2013-01-10 14:55:00,47.1,23.9,30.41,NNW,345,8.8,9.6,40,0.00,,---,0.00,VWS V14.01,2013-01-10 19:55:00,
2013-01-10 15:00:00,47.3,24.5,30.41,NNW,345,10.9,13.1,40,0.00,,---,0.00,VWS V14.01,2013-01-10 20:00:00,
2013-01-10 15:05:00,47.5,25.0,30.41,North,359,12.6,13.0,41,0.00,,---,0.00,VWS V14.01,2013-01-10 20:05:00,
2013-01-10 15:10:00,47.4,24.3,30.41,North,359,10.3,11.6,40,0.00,,---,0.00,VWS V14.01,2013-01-10 20:10:00,
2013-01-10 15:15:00,48.5,25.5,30.41,NW,316,7.1,9.1,40,0.00,,---,0.00,VWS V14.01,2013-01-10 20:15:00,
2013-01-10 15:20:00,47.5,24.3,30.42,North,359,8.3,9.8,40,0.00,,---,0.00,VWS V14.01,2013-01-10 20:20:00,
2013-01-10 15:25:00,47.8,25.1,30.42,NNE,24,9.6,10.3,41,0.00,,---,0.00,VWS V14.01,2013-01-10 20:25:00,
2013-01-10 15:30:00,47.3,24.7,30.42,NNW,342,12.4,12.9,41,0.00,,---,0.00,VWS V14.01,2013-01-10 20:30:00,
2013-01-10 15:35:00,47.4,24.7,30.42,NW,312,5.2,8.6,41,0.00,,---,0.00,VWS V14.01,2013-01-10 20:35:00,
2013-01-10 15:40:00,47.3,24.5,30.42,North,349,5.7,8.7,40,0.00,,---,0.00,VWS V14.01,2013-01-10 20:40:00,
2013-01-10 15:45:00,47.6,24.6,30.43,NNW,330,6.9,8.5,40,0.00,,---,0.00,VWS V14.01,2013-01-10 20:45:00,
2013-01-10 15:50:00,47.5,24.6,30.42,North,8,8.3,9.6,40,0.00,,---,0.00,VWS V14.01,2013-01-10 20:50:00,
2013-01-10 15:55:00,47.0,24.8,30.43,North,359,5.5,6.8,42,0.00,,---,0.00,VWS V14.01,2013-01-10 20:55:00,
2013-01-10 16:00:00,47.3,24.7,30.43,NNW,336,6.1,7.3,41,0.00,,---,0.00,VWS V14.01,2013-01-10 21:00:00,
2013-01-10 16:05:00,47.5,25.2,30.43,NW,325,7.0,7.0,41,0.00,,---,0.00,VWS V14.01,2013-01-10 21:05:00,
2013-01-10 16:10:00,47.0,24.4,30.43,NNW,336,8.0,10.2,41,0.00,,---,0.00,VWS V14.01,2013-01-10 21:10:00,
2013-01-10 16:15:00,47.2,25.2,30.43,NNW,332,9.1,10.6,42,0.00,,---,0.00,VWS V14.01,2013-01-10 21:15:00,
2013-01-10 16:20:00,47.1,24.9,30.44,North,350,9.6,10.3,42,0.00,,---,0.00,VWS V14.01,2013-01-10 21:20:00,
2013-01-10 16:25:00,46.8,24.8,30.43,NNW,339,8.8,10.0,42,0.00,,---,0.00,VWS V14.01,2013-01-10 21:25:00,
2013-01-10 16:30:00,46.8,25.0,30.43,NW,314,7.9,8.6,42,0.00,,---,0.00,VWS V14.01,2013-01-10 21:30:00,
2013-01-10 16:35:00,46.2,24.7,30.43,NW,323,3.7,6.1,42,0.00,,---,0.00,VWS V14.01,2013-01-10 21:35:00,
2013-01-10 16:40:00,46.7,25.0,30.43,WNW,285,6.4,9.8,42,0.00,,---,0.00,VWS V14.01,2013-01-10 21:40:00,
2013-01-10 16:45:00,46.5,25.2,30.43,NW,311,9.5,9.5,43,0.00,,---,0.00,VWS V14.01,2013-01-10 21:45:00,
2013-01-10 16:50:00,45.2,24.1,30.44,NNW,340,5.2,6.4,43,0.00,,---,0.00,VWS V14.01,2013-01-10 21:50:00,
2013-01-10 16:55:00,45.9,25.1,30.44,NNW,330,2.1,2.1,44,0.00,,---,0.00,VWS V14.01,2013-01-10 21:55:00,
2013-01-10 17:00:00,45.7,24.9,30.44,NNW,338,3.7,4.1,44,0.00,,---,0.00,VWS V14.01,2013-01-10 22:00:00,
2013-01-10 17:04:00,45.6,25.2,30.44,NW,319,3.9,4.5,44,0.00,,---,0.00,VWS V14.01,2013-01-10 22:04:00,
2013-01-10 17:05:00,45.5,24.8,30.44,NNW,330,3.0,4.0,44,0.00,,---,0.00,VWS V14.01,2013-01-10 22:05:00,
2013-01-10 17:06:00,44.9,24.8,30.44,NNW,328,2.7,2.9,45,0.00,,---,0.00,VWS V14.01,2013-01-10 22:06:00,
2013-01-10 17:07:00,43.3,24.5,30.44,North,1,2.0,2.0,47,0.00,,---,0.00,VWS V14.01,2013-01-10 22:07:00,
2013-01-10 17:10:00,45.1,24.6,30.44,NW,305,2.7,3.4,44,0.00,,---,0.00,VWS V14.01,2013-01-10 22:10:00,
2013-01-10 17:15:00,45.8,25.4,30.44,NW,314,4.3,4.3,44,0.00,,---,0.00,VWS V14.01,2013-01-10 22:15:00,
2013-01-10 17:20:00,44.5,24.3,30.44,NNW,328,2.5,4.3,45,0.00,,---,0.00,VWS V14.01,2013-01-10 22:20:00,
2013-01-10 17:25:00,45.0,24.9,30.45,NNW,329,0.0,0.0,45,0.00,,---,0.00,VWS V14.01,2013-01-10 22:25:00,
2013-01-10 17:33:00,44.6,24.9,30.45,NNW,340,2.7,2.7,46,0.00,,---,0.00,VWS V14.01,2013-01-10 22:33:00,
2013-01-10 17:38:00,44.1,25.4,30.44,NNW,343,1.9,2.1,47,0.00,,---,0.00,VWS V14.01,2013-01-10 22:38:00,
2013-01-10 17:43:00,44.6,25.6,30.44,NW,315,4.1,4.4,47,0.00,,---,0.00,VWS V14.01,2013-01-10 22:43:00,
2013-01-10 17:48:00,43.3,24.2,30.44,NNW,329,4.0,4.8,46,0.00,,---,0.00,VWS V14.01,2013-01-10 22:48:00,
2013-01-10 17:53:00,43.7,24.6,30.44,NW,307,4.7,4.8,47,0.00,,---,0.00,VWS V14.01,2013-01-10 22:53:00,
2013-01-10 17:58:00,43.9,25.0,30.44,NW,304,4.6,4.7,47,0.00,,---,0.00,VWS V14.01,2013-01-10 22:58:00,
2013-01-10 18:03:00,43.9,25.1,30.44,NNW,328,3.4,5.8,47,0.00,,---,0.00,VWS V14.01,2013-01-10 23:03:00,
2013-01-10 18:08:00,43.8,25.4,30.45,North,4,3.5,3.8,48,0.00,,---,0.00,VWS V14.01,2013-01-10 23:08:00,
2013-01-10 18:13:00,42.7,24.5,30.45,North,4,3.0,3.0,48,0.00,,---,0.00,VWS V14.01,2013-01-10 23:13:00,
2013-01-10 18:18:00,42.7,24.5,30.46,North,1,0.0,0.0,48,0.00,,---,0.00,VWS V14.01,2013-01-10 23:18:00,
2013-01-10 18:23:00,43.3,25.1,30.46,North,1,0.0,0.0,48,0.00,,---,0.00,VWS V14.01,2013-01-10 23:23:00,
2013-01-10 18:28:00,43.3,25.1,30.46,West,271,0.0,0.0,48,0.00,,---,0.00,VWS V14.01,2013-01-10 23:28:00,
2013-01-10 18:33:00,43.3,25.3,30.46,West,271,0.0,0.0,49,0.00,,---,0.00,VWS V14.01,2013-01-10 23:33:00,
2013-01-10 18:38:00,42.4,25.0,30.46,West,280,2.7,2.7,50,0.00,,---,0.00,VWS V14.01,2013-01-10 23:38:00,
2013-01-10 18:43:00,42.3,25.1,30.45,NW,316,4.2,4.4,50,0.00,,---,0.00,VWS V14.01,2013-01-10 23:43:00,
2013-01-10 18:48:00,42.2,25.0,30.46,NW,305,3.4,5.3,50,0.00,,---,0.00,VWS V14.01,2013-01-10 23:48:00,
2013-01-10 18:53:00,42.2,24.9,30.46,WSW,243,0.6,1.2,50,0.00,,---,0.00,VWS V14.01,2013-01-10 23:53:00,
2013-01-10 18:58:00,42.1,25.1,30.46,NNE,14,2.7,2.7,50,0.00,,---,0.00,VWS V14.01,2013-01-10 23:58:00,
2013-01-10 19:03:00,41.4,24.7,30.46,North,10,0.0,0.0,51,0.00,,---,0.00,VWS V14.01,2013-01-11 00:03:00,
2013-01-10 19:08:00,42.1,24.9,30.46,ENE,72,3.5,3.9,50,0.00,,---,0.00,VWS V14.01,2013-01-11 00:08:00,
2013-01-10 19:13:00,42.1,24.9,30.46,NE,56,2.4,3.0,50,0.00,,---,0.00,VWS V14.01,2013-01-11 00:13:00,
2013-01-10 19:18:00,41.4,24.7,30.46,East,89,0.0,0.0,51,0.00,,---,0.00,VWS V14.01,2013-01-11 00:18:00,
2013-01-10 19:23:00,41.5,24.8,30.45,North,359,0.0,0.0,51,0.00,,---,0.00,VWS V14.01,2013-01-11 00:23:00,
2013-01-10 19:28:00,39.9,25.0,30.45,NNW,336,2.7,3.0,55,0.00,,---,0.00,VWS V14.01,2013-01-11 00:28:00,
2013-01-10 19:33:00,38.6,25.2,30.45,NE,46,1.2,2.2,58,0.00,,---,0.00,VWS V14.01,2013-01-11 00:33:00,
2013-01-10 19:38:00,39.2,24.1,30.45,NNE,32,7.0,7.4,54,0.00,,---,0.00,VWS V14.01,2013-01-11 00:38:00,
2013-01-10 19:43:00,40.9,24.4,30.44,NNE,15,6.3,6.3,52,0.00,,---,0.00,VWS V14.01,2013-01-11 00:43:00,
2013-01-10 19:48:00,41.9,25.5,30.45,NNE,30,0.9,1.0,52,0.00,,---,0.00,VWS V14.01,2013-01-11 00:48:00,
2013-01-10 19:53:00,41.1,24.8,30.46,NNE,27,0.2,0.4,52,0.00,,---,0.00,VWS V14.01,2013-01-11 00:53:00,
2013-01-10 19:58:00,40.6,24.5,30.46,NNE,27,0.0,0.0,52,0.00,,---,0.00,VWS V14.01,2013-01-11 00:58:00,
2013-01-10 20:03:00,40.1,24.6,30.46,WNW,302,3.1,3.5,54,0.00,,---,0.00,VWS V14.01,2013-01-11 01:03:00,
2013-01-10 20:08:00,39.7,25.0,30.46,West,269,3.5,3.5,55,0.00,,---,0.00,VWS V14.01,2013-01-11 01:08:00,
2013-01-10 20:13:00,39.3,24.7,30.45,NW,325,5.5,5.7,55,0.00,,---,0.00,VWS V14.01,2013-01-11 01:13:00,
2013-01-10 20:18:00,40.0,25.4,30.46,North,352,0.0,0.0,56,0.00,,---,0.00,VWS V14.01,2013-01-11 01:18:00,
2013-01-10 20:23:00,38.9,24.4,30.46,NNE,27,5.1,5.3,56,0.00,,---,0.00,VWS V14.01,2013-01-11 01:23:00,
2013-01-10 20:28:00,39.7,24.5,30.46,NNE,30,2.2,2.2,54,0.00,,---,0.00,VWS V14.01,2013-01-11 01:28:00,
2013-01-10 20:33:00,40.6,25.2,30.46,North,3,1.9,2.0,54,0.00,,---,0.00,VWS V14.01,2013-01-11 01:33:00,
2013-01-10 20:38:00,39.2,25.8,30.46,North,353,6.5,6.5,58,0.00,,---,0.00,VWS V14.01,2013-01-11 01:38:00,
2013-01-10 20:43:00,39.3,24.7,30.46,North,11,1.1,2.0,55,0.00,,---,0.00,VWS V14.01,2013-01-11 01:43:00,
2013-01-10 20:48:00,39.5,25.1,30.47,NW,305,3.4,3.7,56,0.00,,---,0.00,VWS V14.01,2013-01-11 01:48:00,
2013-01-10 20:53:00,39.7,24.8,30.47,NW,315,1.5,1.6,55,0.00,,---,0.00,VWS V14.01,2013-01-11 01:53:00,
2013-01-10 20:58:00,39.1,24.4,30.47,WNW,288,0.5,0.5,55,0.00,,---,0.00,VWS V14.01,2013-01-11 01:58:00,
2013-01-10 21:03:00,39.5,25.1,30.46,WNW,288,0.0,0.0,56,0.00,,---,0.00,VWS V14.01,2013-01-11 02:03:00,
2013-01-10 21:08:00,38.9,25.4,30.46,NNE,15,0.3,1.1,58,0.00,,---,0.00,VWS V14.01,2013-01-11 02:08:00,
2013-01-10 21:13:00,38.9,25.2,30.46,NNE,14,0.5,0.5,58,0.00,,---,0.00,VWS V14.01,2013-01-11 02:13:00,
2013-01-10 21:18:00,38.6,25.0,30.45,NNE,18,5.7,6.0,58,0.00,,---,0.00,VWS V14.01,2013-01-11 02:18:00,
2013-01-10 21:23:00,39.4,24.9,30.45,NE,46,3.9,4.1,56,0.00,,---,0.00,VWS V14.01,2013-01-11 02:23:00,
2013-01-10 21:28:00,39.4,24.4,30.46,NE,45,3.7,3.7,55,0.00,,---,0.00,VWS V14.01,2013-01-11 02:28:00,
2013-01-10 21:33:00,39.8,24.9,30.46,NE,41,1.0,3.4,55,0.00,,---,0.00,VWS V14.01,2013-01-11 02:33:00,
2013-01-10 21:38:00,39.6,24.6,30.46,NNE,15,0.0,1.0,55,0.00,,---,0.00,VWS V14.01,2013-01-11 02:38:00,
2013-01-10 21:43:00,38.9,24.4,30.46,NNE,15,0.0,0.0,56,0.00,,---,0.00,VWS V14.01,2013-01-11 02:43:00,
2013-01-10 21:48:00,39.3,25.3,30.46,NE,52,2.7,2.9,57,0.00,,---,0.00,VWS V14.01,2013-01-11 02:48:00,
2013-01-10 21:53:00,39.5,25.0,30.47,ENE,62,0.0,0.5,56,0.00,,---,0.00,VWS V14.01,2013-01-11 02:53:00,
2013-01-10 21:58:00,39.0,25.3,30.46,East,84,2.7,2.7,58,0.00,,---,0.00,VWS V14.01,2013-01-11 02:58:00,
2013-01-10 22:03:00,38.2,25.2,30.46,NE,55,1.7,2.1,59,0.00,,---,0.00,VWS V14.01,2013-01-11 03:03:00,
2013-01-10 22:08:00,38.3,24.8,30.46,NE,44,3.7,3.7,58,0.00,,---,0.00,VWS V14.01,2013-01-11 03:08:00,
2013-01-10 22:13:00,38.4,24.6,30.46,NE,44,2.4,3.5,57,0.00,,---,0.00,VWS V14.01,2013-01-11 03:13:00,
2013-01-10 22:18:00,39.5,25.3,30.46,NE,37,0.6,0.6,56,0.00,,---,0.00,VWS V14.01,2013-01-11 03:18:00,
2013-01-10 22:23:00,39.1,25.0,30.46,NE,49,0.9,0.9,56,0.00,,---,0.00,VWS V14.01,2013-01-11 03:23:00,
2013-01-10 22:28:00,39.2,25.0,30.46,NE,38,0.0,0.0,56,0.00,,---,0.00,VWS V14.01,2013-01-11 03:28:00,
2013-01-10 22:33:00,39.0,25.2,30.46,NE,46,1.3,2.0,57,0.00,,---,0.00,VWS V14.01,2013-01-11 03:33:00,
2013-01-10 22:38:00,38.6,25.1,30.47,NE,44,1.1,2.7,58,0.00,,---,0.00,VWS V14.01,2013-01-11 03:38:00,
2013-01-10 22:43:00,37.8,24.8,30.47,NE,45,1.1,1.2,59,0.00,,---,0.00,VWS V14.01,2013-01-11 03:43:00,
2013-01-10 22:48:00,37.4,24.7,30.47,NE,39,0.0,0.0,60,0.00,,---,0.00,VWS V14.01,2013-01-11 03:48:00,
2013-01-10 22:53:00,37.2,25.0,30.46,NE,39,0.0,0.0,61,0.00,,---,0.00,VWS V14.01,2013-01-11 03:53:00,
2013-01-10 22:58:00,37.0,25.9,30.47,NE,55,2.9,3.0,64,0.00,,---,0.00,VWS V14.01,2013-01-11 03:58:00,
2013-01-10 23:03:00,37.3,25.1,30.47,NE,48,1.4,2.9,61,0.00,,---,0.00,VWS V14.01,2013-01-11 04:03:00,
2013-01-10 23:08:00,37.7,25.3,30.47,NE,53,0.9,1.2,60,0.00,,---,0.00,VWS V14.01,2013-01-11 04:08:00,
2013-01-10 23:13:00,37.4,25.5,30.48,NNE,31,0.0,0.0,62,0.00,,---,0.00,VWS V14.01,2013-01-11 04:13:00,
2013-01-10 23:18:00,36.8,25.4,30.47,NE,44,1.7,1.7,63,0.00,,---,0.00,VWS V14.01,2013-01-11 04:18:00,
2013-01-10 23:23:00,36.6,26.4,30.48,NE,45,0.8,0.8,66,0.00,,---,0.00,VWS V14.01,2013-01-11 04:23:00,
2013-01-10 23:28:00,36.4,25.8,30.48,NE,37,2.1,2.2,65,0.00,,---,0.00,VWS V14.01,2013-01-11 04:28:00,
2013-01-10 23:33:00,36.4,25.8,30.48,NE,44,1.4,1.4,65,0.00,,---,0.00,VWS V14.01,2013-01-11 04:33:00,
2013-01-10 23:38:00,36.9,26.1,30.48,NNE,18,1.6,1.6,65,0.00,,---,0.00,VWS V14.01,2013-01-11 04:38:00,
2013-01-10 23:43:00,36.4,25.7,30.48,NNE,14,1.7,1.7,65,0.00,,---,0.00,VWS V14.01,2013-01-11 04:43:00,
2013-01-10 23:48:00,37.0,25.2,30.47,North,6,1.9,2.1,62,0.00,,---,0.00,VWS V14.01,2013-01-11 04:48:00,
2013-01-10 23:53:00,37.8,25.4,30.47,NNE,31,2.2,2.2,60,0.00,,---,0.00,VWS V14.01,2013-01-11 04:53:00,